This is the latest recevied weather packets stored in our database for station/object VE2JJ-13. If no packets are shown the sender has not sent any weather packets the latest 10 day(s).
| Time | Temp. | Humidity | Pressure | Rain* | Wind** | Luminosity | Snow |
|---|---|---|---|---|---|---|---|
| 1777642787 | 7.22° C | 58% | 1004.6 hPa | 0 mm | - | - | - |
| 1777642639 | 7.22° C | 58% | 1004.6 hPa | 0 mm | - | - | - |
| 1777642486 | 7.22° C | 58% | 1004.6 hPa | 0 mm | - | - | - |
| 1777642184 | 7.78° C | 58% | 1004.6 hPa | 0 mm | - | - | - |
| 1777641856 | 7.78° C | 58% | 1004.6 hPa | 0 mm | - | - | - |
| 1777641557 | 7.78° C | 58% | 1004.6 hPa | 0 mm | - | - | - |
| 1777641225 | 7.78° C | 57% | 1004.6 hPa | 0 mm | - | - | - |
| 1777640925 | 8.33° C | 59% | 1004.6 hPa | 0 mm | - | - | - |
| 1777640624 | 7.22° C | 59% | 1004.7 hPa | 0 mm | - | - | - |
| 1777640296 | 7.78° C | 59% | 1004.7 hPa | 0 mm | - | - | - |
| 1777639994 | 7.78° C | 59% | 1004.7 hPa | 0 mm | - | - | - |
| 1777639665 | 7.22° C | 62% | 1004.6 hPa | 0 mm | - | - | - |
| 1777639333 | 8.33° C | 59% | 1004.6 hPa | 0 mm | - | - | - |
| 1777639005 | 8.33° C | 60% | 1004.8 hPa | 0 mm | - | - | - |
| 1777638764 | 7.78° C | 60% | 1004.8 hPa | 0 mm | - | - | - |
| 1777638675 | 7.78° C | 60% | 1004.8 hPa | 0 mm | - | - | - |
| 1777638375 | 7.78° C | 60% | 1004.8 hPa | 0 mm | - | - | - |
| 1777638045 | 7.78° C | 62% | 1004.8 hPa | 0 mm | - | - | - |
| 1777637718 | 7.22° C | 63% | 1004.7 hPa | 0 mm | - | - | - |
| 1777637415 | 7.22° C | 64% | 1004.7 hPa | 0 mm | - | - | - |
| 1777637087 | 7.22° C | 64% | 1004.8 hPa | 0 mm | - | - | - |
| 1777636754 | 6.67° C | 65% | 1004.8 hPa | 0 mm | - | - | - |
| 1777636425 | 6.67° C | 67% | 1004.8 hPa | 0 mm | - | - | - |
| 1777636124 | 6.67° C | 66% | 1004.7 hPa | 0 mm | - | - | - |
| 1777636015 | 6.11° C | 68% | 1004.7 hPa | 0 mm | - | - | - |
* Rain latest hour (hover to see other rain measurements)
** Current wind speed in m/s (hover to see current wind gust speed)